Location: Pl�tzky
(52.0521°N, 11.8020°E)
Time: 09:44:43
(UTC+00:00)

N. Korean satellite - Pass Details

Date: 05 February 2021
Orbit: 451 x 502 km, 97.2° (Epoch: 07 March)

Event Time Altitude Azimuth Distance (km) Brightness Sun altitude
Rises 16:43:02 0° 204° (SSW) 2,541 10.9 -5.8°
Reaches altitude 10° 16:45:38 10° 224° (SW) 1,656 10.4 -6.2°
Maximum altitude 16:48:06 18° 269° (W) 1,250 9.9 -6.5°
Drops below altitude 10° 16:50:33 10° 313° (NW) 1,646 9.7 -6.9°
Sets 16:53:07 0° 333° (NNW) 2,518 10.3 -7.3°
